Location: Calvatone
(45.1167°N, 10.4333°E)
Time: 18:29:50
(UTC+00:00)

BlueWalker 3 - Pass Details

Date: 13 June 2023
Orbit: 491 x 508 km, 53.2° (Epoch: 28 September)

Event Time Altitude Azimuth Distance (km) Brightness Sun altitude
Rises 19:27:28 0° 303° (WNW) 2,575 8.3 -3.8°
Reaches altitude 10° 19:29:44 10° 311° (NW) 1,694 6.6 -4.1°
Maximum altitude 19:33:22 40° 22° (NNE) 739 3.0 -4.6°
Drops below altitude 10° 19:37:01 10° 94° (E) 1,700 4.1 -5.1°
Enters shadow 19:38:32 - 100° (E) 2,285 4.7 -5.3°
